N66M KTPA-KMYR

Flight info

Callsign N66M
Flight time 1h 20m
Altitude 39000
Route BAYPO2 CAMJO Q109 PANDY
Aircraft E55P/L-S/L

Departure

Time 2026-04-24 22:32
Airport Tampa International Airport (KTPA)

Arrival

Time 2026-04-24 23:52
Airport Myrtle Beach International Airport (KMYR)
Time Latitude Longitude Altitude Speed Heading
2026-04-24 21:57 27.96793 -82.52541 19 ft 0 kts 90°
2026-04-24 22:25 27.96793 -82.52530 19 ft 2 kts 90°
2026-04-24 22:25 27.96795 -82.52509 20 ft 4 kts 77°
2026-04-24 22:25 27.96804 -82.52498 20 ft 2 kts 356°
2026-04-24 22:26 27.96824 -82.52513 20 ft 4 kts 323°
2026-04-24 22:26 27.96850 -82.52536 20 ft 5 kts 322°
2026-04-24 22:26 27.96886 -82.52560 20 ft 6 kts 339°
2026-04-24 22:26 27.96926 -82.52557 21 ft 6 kts 45°
2026-04-24 22:27 27.96938 -82.52506 21 ft 7 kts 91°
2026-04-24 22:27 27.96936 -82.52444 21 ft 8 kts 91°
2026-04-24 22:27 27.96934 -82.52373 21 ft 9 kts 91°
2026-04-24 22:27 27.96932 -82.52294 21 ft 10 kts 91°
2026-04-24 22:28 27.96930 -82.52210 22 ft 10 kts 91°
2026-04-24 22:28 27.96927 -82.52130 23 ft 9 kts 91°
2026-04-24 22:28 27.96925 -82.52055 24 ft 9 kts 91°
2026-04-24 22:28 27.96923 -82.51971 24 ft 11 kts 91°
2026-04-24 22:29 27.96918 -82.51784 25 ft 12 kts 91°
2026-04-24 22:29 27.96915 -82.51692 26 ft 11 kts 91°
2026-04-24 22:29 27.96913 -82.51603 27 ft 11 kts 91°
2026-04-24 22:30 27.96911 -82.51508 27 ft 10 kts 85°
2026-04-24 22:30 27.96944 -82.51459 27 ft 5 kts 14°
2026-04-24 22:30 27.96951 -82.51457 27 ft 0 kts
2026-04-24 22:31 27.96952 -82.51457 27 ft 1 kts
2026-04-24 22:31 27.96978 -82.51455 28 ft 6 kts
2026-04-24 22:31 27.97026 -82.51475 27 ft 9 kts 285°
2026-04-24 22:32 27.97029 -82.51570 27 ft 24 kts 271°
2026-04-24 22:32 27.97045 -82.52144 24 ft 120 kts 271°
2026-04-24 22:32 27.97076 -82.53274 355 ft 162 kts 272°
2026-04-24 22:32 27.97127 -82.54691 771 ft 196 kts 271°
2026-04-24 22:33 27.97170 -82.56293 1347 ft 209 kts 271°
2026-04-24 22:33 27.97180 -82.57907 1842 ft 212 kts 271°
2026-04-24 22:33 27.97183 -82.59645 2356 ft 225 kts 270°
2026-04-24 22:33 27.97180 -82.61442 2885 ft 231 kts 269°
2026-04-24 22:34 27.97171 -82.63270 3430 ft 237 kts 269°
2026-04-24 22:34 27.97214 -82.65151 3992 ft 241 kts 281°
2026-04-24 22:34 27.98042 -82.66721 4519 ft 236 kts 323°
2026-04-24 22:34 27.99586 -82.67333 5070 ft 237 kts 357°
2026-04-24 22:35 28.01234 -82.67126 5647 ft 241 kts 17°
2026-04-24 22:35 28.02812 -82.66485 6244 ft 244 kts 23°
2026-04-24 22:35 28.04382 -82.65712 6866 ft 246 kts 24°
2026-04-24 22:35 28.05942 -82.64904 7491 ft 246 kts 24°
2026-04-24 22:36 28.07492 -82.64092 8099 ft 245 kts 24°
2026-04-24 22:36 28.09051 -82.63274 8648 ft 249 kts 23°
2026-04-24 22:36 28.10543 -82.62487 9209 ft 250 kts 23°
2026-04-24 22:36 28.12191 -82.61620 9808 ft 252 kts 22°
2026-04-24 22:37 28.13782 -82.60780 10364 ft 254 kts 22°
2026-04-24 22:37 28.15424 -82.59916 10718 ft 264 kts 22°
2026-04-24 22:37 28.17082 -82.59038 11217 ft 261 kts 22°
2026-04-24 22:37 28.18717 -82.58185 11690 ft 256 kts 19°
2026-04-24 22:38 28.20456 -82.57623 11960 ft 269 kts
2026-04-24 22:38 28.22400 -82.57507 12015 ft 289 kts 354°
2026-04-24 22:38 28.24453 -82.57705 12008 ft 299 kts 355°
2026-04-24 22:38 28.26565 -82.57783 12001 ft 302 kts 355°
2026-04-24 22:39 28.28661 -82.57850 11993 ft 301 kts 356°
2026-04-24 22:39 28.30775 -82.57915 11990 ft 299 kts 356°
2026-04-24 22:39 28.32838 -82.57973 11991 ft 298 kts 356°
2026-04-24 22:39 28.34941 -82.58035 12003 ft 297 kts 356°
2026-04-24 22:40 28.37039 -82.58096 12017 ft 296 kts 356°
2026-04-24 22:40 28.39096 -82.58144 11980 ft 296 kts 356°
2026-04-24 22:40 28.41169 -82.58196 11997 ft 294 kts 356°
2026-04-24 22:40 28.43231 -82.58248 11995 ft 296 kts 356°
2026-04-24 22:41 28.45357 -82.58304 11992 ft 311 kts 356°
2026-04-24 22:41 28.47543 -82.58358 12291 ft 314 kts 356°
2026-04-24 22:41 28.49771 -82.58411 12726 ft 325 kts 356°
2026-04-24 22:41 28.52069 -82.58471 13165 ft 334 kts 356°
2026-04-24 22:42 28.54405 -82.58529 13607 ft 339 kts 356°
2026-04-24 22:42 28.56767 -82.58587 14072 ft 337 kts 356°
2026-04-24 22:42 28.59120 -82.58646 14526 ft 333 kts 356°
2026-04-24 22:42 28.61430 -82.58706 14958 ft 332 kts 356°
2026-04-24 22:43 28.63750 -82.58764 15372 ft 336 kts 356°
2026-04-24 22:43 28.66130 -82.58826 15843 ft 341 kts 356°
2026-04-24 22:43 28.68475 -82.59025 16301 ft 342 kts 349°
2026-04-24 22:43 28.70851 -82.59373 16733 ft 343 kts 351°
2026-04-24 22:44 28.73222 -82.59708 17157 ft 342 kts 351°
2026-04-24 22:44 28.75597 -82.60039 17628 ft 343 kts 351°
2026-04-24 22:44 28.77965 -82.60368 18044 ft 346 kts 351°
2026-04-24 22:44 28.80379 -82.60705 18498 ft 351 kts 350°
2026-04-24 22:45 28.82813 -82.61047 18948 ft 355 kts 351°
2026-04-24 22:45 28.85294 -82.61391 19401 ft 357 kts 350°
2026-04-24 22:45 28.87760 -82.61734 19847 ft 358 kts 350°
2026-04-24 22:45 28.90237 -82.62082 20292 ft 359 kts 351°
2026-04-24 22:46 28.92713 -82.62428 20737 ft 361 kts 350°
2026-04-24 22:46 28.95246 -82.62784 21195 ft 365 kts 350°
2026-04-24 22:46 28.97782 -82.63137 21654 ft 370 kts 350°
2026-04-24 22:46 29.00354 -82.63498 22112 ft 374 kts 350°
2026-04-24 22:47 29.02940 -82.63856 22559 ft 376 kts 350°
2026-04-24 22:47 29.05550 -82.64224 23009 ft 378 kts 350°
2026-04-24 22:47 29.08182 -82.64593 23472 ft 380 kts 350°
2026-04-24 22:47 29.10842 -82.64966 23937 ft 383 kts 350°
2026-04-24 22:48 29.13498 -82.65339 24406 ft 386 kts 350°
2026-04-24 22:48 29.16160 -82.65714 24872 ft 388 kts 350°
2026-04-24 22:48 29.18847 -82.66090 25335 ft 390 kts 350°
2026-04-24 22:48 29.21561 -82.66472 25802 ft 392 kts 350°
2026-04-24 22:49 29.24281 -82.66854 26269 ft 393 kts 350°
2026-04-24 22:49 29.27012 -82.67236 26738 ft 394 kts 350°
2026-04-24 22:49 29.29718 -82.67619 27154 ft 396 kts 350°
2026-04-24 22:49 29.32499 -82.68014 27553 ft 399 kts 350°
2026-04-24 22:50 29.35259 -82.68400 27944 ft 401 kts 350°
2026-04-24 22:50 29.38019 -82.68788 28333 ft 403 kts 350°
2026-04-24 22:50 29.40842 -82.69188 28732 ft 404 kts 350°
2026-04-24 22:50 29.43654 -82.69354 29116 ft 409 kts 358°
2026-04-24 22:51 29.46518 -82.69301 29514 ft 410 kts 357°
2026-04-24 22:51 29.49370 -82.69278 29835 ft 413 kts 357°
2026-04-24 22:51 29.52276 -82.69259 30101 ft 417 kts 357°
2026-04-24 22:51 29.55208 -82.69237 30369 ft 420 kts 357°
2026-04-24 22:52 29.58126 -82.69222 30634 ft 424 kts 357°
2026-04-24 22:52 29.61112 -82.69202 30900 ft 427 kts 357°
2026-04-24 22:52 29.64096 -82.69183 31164 ft 429 kts 357°
2026-04-24 22:52 29.67113 -82.69165 31426 ft 432 kts 357°
2026-04-24 22:53 29.70110 -82.69146 31689 ft 434 kts 357°
2026-04-24 22:53 29.73133 -82.69128 31954 ft 436 kts 357°
2026-04-24 22:53 29.76202 -82.69108 32218 ft 437 kts 357°
2026-04-24 22:53 29.79228 -82.69087 32475 ft 438 kts 357°
2026-04-24 22:54 29.82316 -82.69068 32743 ft 440 kts 357°
2026-04-24 22:54 29.85363 -82.69049 33091 ft 439 kts 357°
2026-04-24 22:54 29.88413 -82.69029 33482 ft 438 kts 357°
2026-04-24 22:54 29.91484 -82.69010 33941 ft 435 kts 357°
2026-04-24 22:55 29.94494 -82.68991 34417 ft 432 kts 356°
2026-04-24 22:55 29.97507 -82.68972 34898 ft 429 kts 356°
2026-04-24 22:55 30.00485 -82.68954 35379 ft 426 kts 357°
2026-04-24 22:55 30.03455 -82.68935 35859 ft 423 kts 357°
2026-04-24 22:56 30.06393 -82.68917 36303 ft 421 kts 356°
2026-04-24 22:56 30.09302 -82.68899 36700 ft 420 kts 357°
2026-04-24 22:56 30.12269 -82.68881 37043 ft 420 kts 356°
2026-04-24 22:56 30.15188 -82.68864 37303 ft 422 kts 356°
2026-04-24 22:57 30.18154 -82.68845 37595 ft 423 kts 357°
2026-04-24 22:57 30.21068 -82.68825 37881 ft 424 kts 356°
2026-04-24 22:57 30.24057 -82.68806 38172 ft 425 kts 356°
2026-04-24 22:57 30.27020 -82.68790 38408 ft 427 kts 356°
2026-04-24 22:58 30.30008 -82.68770 38557 ft 425 kts 356°
2026-04-24 22:58 30.32945 -82.68750 38696 ft 422 kts 356°
2026-04-24 22:58 30.35869 -82.68734 38840 ft 418 kts 356°
2026-04-24 22:58 30.38798 -82.68714 38919 ft 417 kts 356°
2026-04-24 22:59 30.44633 -82.68678 38930 ft 421 kts 357°
2026-04-24 23:00 30.53511 -82.68139 38936 ft 430 kts
2026-04-24 23:00 30.59378 -82.66839 38921 ft 427 kts
2026-04-24 23:01 30.65204 -82.65595 38925 ft 422 kts
2026-04-24 23:01 30.70992 -82.64359 38917 ft 422 kts
2026-04-24 23:02 30.76821 -82.63115 38913 ft 426 kts
2026-04-24 23:02 30.82700 -82.61858 38912 ft 429 kts
2026-04-24 23:03 30.88571 -82.60601 38914 ft 427 kts
2026-04-24 23:03 30.94422 -82.59345 38908 ft 423 kts
2026-04-24 23:04 31.00232 -82.58101 38913 ft 422 kts
2026-04-24 23:04 31.06030 -82.56854 38915 ft 426 kts
2026-04-24 23:05 31.11698 -82.54614 38925 ft 437 kts 23°
2026-04-24 23:05 31.17020 -82.51255 38918 ft 425 kts 24°
2026-04-24 23:06 31.22219 -82.48083 38919 ft 413 kts 24°
2026-04-24 23:06 31.27259 -82.45020 38919 ft 404 kts 24°
2026-04-24 23:07 31.32244 -82.41988 38926 ft 404 kts 24°
2026-04-24 23:07 31.37255 -82.38935 38923 ft 408 kts 24°
2026-04-24 23:08 31.42366 -82.35819 38935 ft 411 kts 24°
2026-04-24 23:08 31.47458 -82.32711 38923 ft 414 kts 25°
2026-04-24 23:09 31.52583 -82.29575 38918 ft 416 kts 25°
2026-04-24 23:09 31.57724 -82.26425 38916 ft 415 kts 25°
2026-04-24 23:10 31.62839 -82.23291 38907 ft 413 kts 25°
2026-04-24 23:10 31.67944 -82.20156 38925 ft 412 kts 25°
2026-04-24 23:11 31.73059 -82.17014 38911 ft 414 kts 25°
2026-04-24 23:11 31.78189 -82.13860 38923 ft 416 kts 25°
2026-04-24 23:12 31.83313 -82.10699 38921 ft 415 kts 25°
2026-04-24 23:12 31.88449 -82.07533 38927 ft 414 kts 25°
2026-04-24 23:13 31.93538 -82.04388 38921 ft 414 kts 25°
2026-04-24 23:13 31.98686 -82.01203 38919 ft 416 kts 25°
2026-04-24 23:14 32.03820 -81.98024 38914 ft 418 kts 25°
2026-04-24 23:14 32.08971 -81.94831 38917 ft 416 kts 25°
2026-04-24 23:15 32.14061 -81.91555 38915 ft 414 kts 31°
2026-04-24 23:15 32.18484 -81.87117 38922 ft 415 kts 40°
2026-04-24 23:16 32.22756 -81.82478 38923 ft 417 kts 40°
2026-04-24 23:16 32.27052 -81.77827 38919 ft 419 kts 40°
2026-04-24 23:17 32.31369 -81.73150 38915 ft 421 kts 40°
2026-04-24 23:17 32.35652 -81.68501 38914 ft 419 kts 40°
2026-04-24 23:18 32.39943 -81.63841 38919 ft 416 kts 40°
2026-04-24 23:18 32.44212 -81.59194 38916 ft 416 kts 40°
2026-04-24 23:19 32.48479 -81.54547 38919 ft 418 kts 40°
2026-04-24 23:19 32.52806 -81.49828 38920 ft 421 kts 40°
2026-04-24 23:20 32.57108 -81.45126 38923 ft 421 kts 40°
2026-04-24 23:20 32.61390 -81.40444 38916 ft 419 kts 40°
2026-04-24 23:21 32.65696 -81.35726 38921 ft 417 kts 40°
2026-04-24 23:21 32.69966 -81.31042 38922 ft 416 kts 40°
2026-04-24 23:22 32.74248 -81.26340 38924 ft 418 kts 40°
2026-04-24 23:22 32.78524 -81.21636 38909 ft 422 kts 40°
2026-04-24 23:23 32.82844 -81.16877 38915 ft 422 kts 40°
2026-04-24 23:23 32.87154 -81.12125 38904 ft 419 kts 40°
2026-04-24 23:24 32.91429 -81.07401 38910 ft 417 kts 40°
2026-04-24 23:24 32.95649 -81.02734 38903 ft 417 kts 40°
2026-04-24 23:25 32.99856 -80.98077 38910 ft 419 kts 40°
2026-04-24 23:25 33.04133 -80.93331 38906 ft 421 kts 40°
2026-04-24 23:26 33.08452 -80.88534 38907 ft 421 kts 40°
2026-04-24 23:26 33.12706 -80.83801 38907 ft 419 kts 40°
2026-04-24 23:27 33.16987 -80.79037 38903 ft 417 kts 40°
2026-04-24 23:27 33.21220 -80.74313 38908 ft 418 kts 40°
2026-04-24 23:28 33.25515 -80.69519 38909 ft 422 kts 40°
2026-04-24 23:28 33.29806 -80.64719 38903 ft 424 kts 40°
2026-04-24 23:29 33.34126 -80.59879 38895 ft 422 kts 40°
2026-04-24 23:29 33.38414 -80.55190 38897 ft 417 kts 37°
2026-04-24 23:30 33.42559 -80.50258 38896 ft 420 kts 50°
2026-04-24 23:30 33.45333 -80.44114 38908 ft 428 kts 68°
2026-04-24 23:31 33.46597 -80.37154 38275 ft 426 kts 78°
2026-04-24 23:31 33.47277 -80.33743 37672 ft 419 kts 70°
2026-04-24 23:31 33.48207 -80.30457 36929 ft 413 kts 69°
2026-04-24 23:31 33.49141 -80.27260 36164 ft 409 kts 69°
2026-04-24 23:32 33.50095 -80.24035 35396 ft 404 kts 69°
2026-04-24 23:32 33.51030 -80.20896 34671 ft 400 kts 69°
2026-04-24 23:32 33.51949 -80.17806 33950 ft 396 kts 69°
2026-04-24 23:32 33.52871 -80.14701 33273 ft 392 kts 69°
2026-04-24 23:33 33.53767 -80.11679 32630 ft 388 kts 69°
2026-04-24 23:33 33.54669 -80.08635 31976 ft 384 kts 69°
2026-04-24 23:33 33.55551 -80.05650 31331 ft 380 kts 69°
2026-04-24 23:33 33.56431 -80.02686 30685 ft 375 kts 69°
2026-04-24 23:34 33.57289 -79.99781 30039 ft 370 kts 69°
2026-04-24 23:34 33.58129 -79.96932 29311 ft 351 kts 69°
2026-04-24 23:34 33.58923 -79.94244 28637 ft 335 kts 68°
2026-04-24 23:34 33.59684 -79.91657 27968 ft 322 kts 68°
2026-04-24 23:35 33.60415 -79.89178 27306 ft 311 kts 68°
2026-04-24 23:35 33.61120 -79.86785 26650 ft 301 kts 68°
2026-04-24 23:35 33.61804 -79.84467 25999 ft 293 kts 68°
2026-04-24 23:35 33.62471 -79.82194 25350 ft 286 kts 68°
2026-04-24 23:36 33.63121 -79.79981 24706 ft 281 kts 68°
2026-04-24 23:36 33.63766 -79.77788 24121 ft 283 kts 67°
2026-04-24 23:36 33.64422 -79.75555 23447 ft 285 kts 68°
2026-04-24 23:36 33.65071 -79.73328 22789 ft 279 kts 67°
2026-04-24 23:37 33.65709 -79.71160 22160 ft 273 kts 68°
2026-04-24 23:37 33.66325 -79.69051 21539 ft 269 kts 67°
2026-04-24 23:37 33.67540 -79.64893 20292 ft 262 kts 67°
2026-04-24 23:38 33.68143 -79.62831 19669 ft 260 kts 67°
2026-04-24 23:38 33.68734 -79.60805 19057 ft 257 kts 67°
2026-04-24 23:38 33.69320 -79.58793 18446 ft 255 kts 67°
2026-04-24 23:38 33.69898 -79.56810 17843 ft 253 kts 67°
2026-04-24 23:39 33.70473 -79.54836 17253 ft 251 kts 67°
2026-04-24 23:39 33.71049 -79.52867 16660 ft 250 kts 68°
2026-04-24 23:39 33.71614 -79.50926 16067 ft 248 kts 68°
2026-04-24 23:39 33.72173 -79.48994 15471 ft 247 kts 68°
2026-04-24 23:40 33.72740 -79.47042 14868 ft 246 kts 68°
2026-04-24 23:40 33.73293 -79.45134 14273 ft 244 kts 68°
2026-04-24 23:40 33.73846 -79.43223 13670 ft 243 kts 69°
2026-04-24 23:40 33.74400 -79.41312 13059 ft 242 kts 69°
2026-04-24 23:41 33.74946 -79.39424 12450 ft 241 kts 68°
2026-04-24 23:41 33.75495 -79.37524 11828 ft 239 kts 68°
2026-04-24 23:41 33.76039 -79.35643 11184 ft 238 kts 68°
2026-04-24 23:41 33.76572 -79.33798 10590 ft 236 kts 69°
2026-04-24 23:42 33.77104 -79.31959 9982 ft 234 kts 68°
2026-04-24 23:42 33.77636 -79.30115 9345 ft 232 kts 68°
2026-04-24 23:42 33.78157 -79.28313 8711 ft 230 kts 69°
2026-04-24 23:42 33.78681 -79.26502 8092 ft 230 kts 69°
2026-04-24 23:43 33.79203 -79.24691 7476 ft 229 kts 69°
2026-04-24 23:43 33.79724 -79.22882 6861 ft 229 kts 70°
2026-04-24 23:43 33.80242 -79.21085 6271 ft 231 kts 70°
2026-04-24 23:43 33.80769 -79.19252 5648 ft 235 kts 70°
2026-04-24 23:44 33.81303 -79.17396 4920 ft 238 kts 71°
2026-04-24 23:44 33.81844 -79.15510 4197 ft 241 kts 71°
2026-04-24 23:44 33.82378 -79.13651 3677 ft 233 kts 71°
2026-04-24 23:44 33.82907 -79.11805 3465 ft 228 kts 72°
2026-04-24 23:45 33.83413 -79.10038 3341 ft 224 kts 72°
2026-04-24 23:45 33.83923 -79.08257 3098 ft 226 kts 72°
2026-04-24 23:45 33.84437 -79.06463 2892 ft 226 kts 72°
2026-04-24 23:45 33.84944 -79.04691 2768 ft 222 kts 72°
2026-04-24 23:46 33.85445 -79.02938 2641 ft 219 kts 72°
2026-04-24 23:46 33.85934 -79.01224 2468 ft 218 kts 73°
2026-04-24 23:46 33.86431 -78.99485 2258 ft 220 kts 73°
2026-04-24 23:46 33.86899 -78.97736 2042 ft 219 kts 84°
2026-04-24 23:47 33.86627 -78.96062 2014 ft 195 kts 131°
2026-04-24 23:47 33.85614 -78.95225 2010 ft 170 kts 174°
2026-04-24 23:47 33.84475 -78.95096 1980 ft 160 kts 181°
2026-04-24 23:47 33.83398 -78.94997 1945 ft 151 kts 181°
2026-04-24 23:48 33.82361 -78.94951 1807 ft 145 kts 193°
2026-04-24 23:48 33.81425 -78.95282 1727 ft 134 kts 201°
2026-04-24 23:48 33.80529 -78.95571 1606 ft 130 kts 190°
2026-04-24 23:48 33.79654 -78.95548 1585 ft 119 kts 182°
2026-04-24 23:49 33.78840 -78.95445 1584 ft 116 kts 179°
2026-04-24 23:49 33.78040 -78.95295 1603 ft 116 kts 177°
2026-04-24 23:49 33.77213 -78.95114 1553 ft 124 kts 176°
2026-04-24 23:49 33.76375 -78.94916 1402 ft 121 kts 175°
2026-04-24 23:50 33.75559 -78.94717 1253 ft 118 kts 175°
2026-04-24 23:50 33.74749 -78.94516 1105 ft 116 kts 175°
2026-04-24 23:50 33.73958 -78.94320 955 ft 116 kts 174°
2026-04-24 23:50 33.73152 -78.94121 813 ft 120 kts 173°
2026-04-24 23:51 33.72322 -78.93915 651 ft 121 kts 172°
2026-04-24 23:51 33.71498 -78.93700 464 ft 120 kts 172°
2026-04-24 23:51 33.70687 -78.93503 330 ft 116 kts 171°
2026-04-24 23:51 33.69891 -78.93301 185 ft 116 kts 173°
2026-04-24 23:52 33.69109 -78.93111 45 ft 111 kts 171°
2026-04-24 23:52 33.68395 -78.92938 21 ft 94 kts 170°
2026-04-24 23:52 33.67857 -78.92802 21 ft 59 kts 170°
2026-04-24 23:52 33.67543 -78.92724 20 ft 27 kts 168°
2026-04-24 23:53 33.67439 -78.92712 21 ft 9 kts 217°
2026-04-24 23:53 33.67419 -78.92783 20 ft 9 kts 259°
2026-04-24 23:53 33.67406 -78.92860 21 ft 9 kts 258°
2026-04-24 23:53 33.67392 -78.92937 21 ft 9 kts 258°
2026-04-24 23:54 33.67382 -78.93015 20 ft 9 kts 275°
2026-04-24 23:54 33.67427 -78.93061 20 ft 9 kts 346°
2026-04-24 23:54 33.67454 -78.93117 20 ft 8 kts 251°
2026-04-24 23:54 33.67417 -78.93180 20 ft 9 kts 242°
2026-04-24 23:55 33.67399 -78.93263 21 ft 10 kts 258°
2026-04-24 23:55 33.67387 -78.93333 23 ft 6 kts 259°
2026-04-24 23:55 33.67381 -78.93366 23 ft 0 kts 258°